Wind_Speed
13 13 14 15 14 14 14 15 16 16 16 16 16 16 16 16 15 15 15 16 17 17 17 18 18 18 18 17 17 17 17 17 17 18 18 19 20 20 20 21 21 21 21 21
13 14 14 13 12 12 13 14 15 15 15 16 17 17 17 16 16 16 16 16 17 17 17 18 18 18 18 18 17 17 17 17 17 17 18 18 19 19 20 20 20 21 21 21
13 12 12 12 11 12 13 13 14 14 16 17 18 18 18 17 17 16 17 17 17 18 18 18 18 17 17 17 17 17 17 18 18 17 17 18 18 18 17 17 18 19 19 19
12 11 11 10 11 11 13 13 13 15 16 17 18 18 18 18 17 17 17 17 17 16 16 16 16 15 15 16 16 15 16 16 16 16 16 16 16 16 16 16 17 17 17 18
12 11 10 9 10 11 12 13 13 15 17 18 18 17 17 16 16 16 16 16 15 14 14 14 13 13 13 13 13 13 13 13 13 13 14 14 14 14 15 16 17 17 17 18
10 10 9 8 10 10 11 12 14 15 16 17 16 15 15 15 15 15 15 13 11 11 10 10 10 10 10 9 9 10 10 11 11 11 11 12 13 14 15 15 16 16 16 17
10 9 7 8 9 10 11 12 14 15 15 16 15 14 14 14 14 14 12 9 8 8 8 7 7 7 6 6 6 6 7 7 8 8 9 10 11 11 13 14 14 15 15 15
9 8 6 7 7 9 11 12 13 14 14 14 14 14 13 13 13 11 8 7 6 5 5 5 5 5 5 4 4 4 4 5 5 5 6 6 7 8 9 10 11 12 12 12
7 5 4 5 7 9 10 11 12 13 13 13 13 13 12 12 11 8 6 5 3 3 3 3 4 4 4 3 3 3 3 3 3 4 4 5 6 7 7 8 9 9 10 10
6 4 3 5 6 8 10 11 12 12 12 12 11 11 11 10 9 7 6 4 2 1 2 2 3 3 2 3 2 2 2 2 2 2 3 3 4 5 5 5 6 6 7 7
4 3 2 3 5 7 9 11 11 11 11 11 11 11 10 10 8 7 6 4 2 0 2 2 2 2 2 2 2 2 2 2 1 1 1 2 2 2 2 3 3 4 4 5
4 2 0 2 4 6 9 10 10 10 11 11 11 11 11 10 9 8 6 5 3 2 3 2 2 3 2 2 2 2 2 2 1 1 1 2 2 2 1 1 1 2 2 3
3 2 0 3 4 6 8 9 9 10 11 11 11 11 11 10 10 9 8 7 6 4 4 4 4 4 4 3 3 3 3 2 2 2 2 2 2 2 2 2 2 2 2 2
2 1 0 2 4 5 7 8 9 10 11 11 12 12 12 11 11 11 10 9 8 7 7 7 6 6 6 5 4 4 4 4 3 3 3 4 4 4 4 4 4 4 4 5
2 2 2 3 4 5 6 8 9 10 11 11 12 13 13 13 12 12 12 11 11 10 10 9 9 8 8 7 6 6 6 6 5 5 5 5 6 6 6 6 6 6 6 6
4 4 3 4 4 5 7 8 9 11 11 12 12 13 14 14 14 14 13 13 13 13 13 12 11 11 10 9 9 8 8 7 7 7 7 7 7 7 7 8 8 8 8 8
4 4 4 5 5 6 7 8 9 11 12 13 14 14 15 15 15 15 15 15 15 15 14 14 13 13 12 12 11 11 10 10 10 9 9 10 10 10 10 10 10 10 10 10
6 5 6 6 6 7 8 8 10 11 12 13 14 15 16 16 16 16 16 16 16 16 15 15 15 14 14 14 13 13 12 12 12 12 12 12 12 12 12 12 11 11 11 10
8 8 7 7 7 7 8 9 10 11 11 12 14 15 16 17 18 18 18 18 18 18 18 17 16 16 16 16 15 15 15 14 14 14 14 14 14 14 13 13 12 12 11 11
9 9 9 8 8 7 8 9 10 10 11 12 13 14 16 17 17 18 19 19 19 19 19 19 18 18 18 17 17 16 16 15 15 15 14 14 14 14 13 13 12 12 12 11
12 11 10 9 9 9 9 9 10 11 12 12 13 14 15 16 17 17 18 19 19 19 19 19 19 19 18 18 17 17 16 16 16 15 15 14 14 13 13 13 12 12 11 11
13 12 11 11 10 10 10 10 11 11 12 12 13 14 14 15 16 16 17 18 18 19 19 19 19 19 18 18 17 17 16 16 15 15 15 14 14 13 13 12 12 12 11 11
15 14 13 12 11 11 11 11 11 11 12 12 13 13 14 15 15 16 16 17 17 18 18 18 19 18 18 17 17 16 16 15 15 15 14 14 13 13 13 12 12 12 11 11
18 16 15 13 12 12 11 11 11 11 12 12 13 13 14 15 15 16 16 16 17 17 17 17 17 17 17 17 16 16 15 15 14 14 14 14 13 13 12 12 12 11 11 11
20 18 16 15 14 13 12 12 11 11 12 12 12 13 14 14 15 15 16 16 16 17 17 17 17 16 16 16 15 15 15 14 14 14 14 14 13 12 12 11 11 11 11 11
23 21 19 17 16 15 14 13 12 12 11 12 12 12 13 13 14 14 15 15 15 16 16 16 16 16 15 15 15 15 14 14 13 13 13 13 12 12 11 11 11 11 12 12
25 24 21 19 18 16 15 14 14 13 12 12 12 12 12 12 13 13 14 14 14 14 15 15 15 15 15 15 14 14 14 13 13 13 12 12 12 12 11 11 11 12 12 12
Wind_Direction
253 258 258 261 268 279 286 292 298 301 301 303 306 309 309 305 304 298 294 292 288 284 279 274 272 271 269 266 264 263 259 255 253 254 256 256 255 257 259 260 260 260 262 264
254 255 260 266 274 282 289 295 300 300 301 305 309 309 309 307 304 298 294 291 288 284 278 275 273 270 268 266 264 260 258 258 258 258 256 255 256 259 260 260 260 260 261 264
247 252 260 271 280 286 292 295 301 305 308 308 306 305 304 304 303 300 295 292 288 282 278 276 274 269 266 265 262 259 258 257 260 261 260 259 260 261 261 262 263 264 264 264
244 254 263 275 280 286 294 298 307 311 311 310 307 305 306 306 304 301 297 294 289 283 279 276 273 267 263 259 256 258 259 257 256 255 258 258 258 259 259 261 264 265 266 268
250 256 262 273 283 290 297 303 309 311 311 310 309 307 308 307 305 301 299 295 288 282 279 275 269 264 258 253 255 259 258 255 253 251 251 252 254 254 258 259 259 260 264 264
243 256 271 279 284 292 304 310 315 315 314 316 314 312 313 312 310 306 303 296 287 280 271 265 260 254 251 254 253 255 255 252 249 248 249 249 252 256 257 257 259 260 262 264
238 257 279 289 299 302 310 319 322 321 320 320 321 320 320 319 314 310 304 295 286 276 263 254 252 249 248 248 248 250 250 247 247 247 247 251 254 257 259 259 259 260 262 262
234 249 281 304 311 317 320 324 327 327 327 325 325 325 325 323 320 316 307 293 285 272 254 243 242 237 232 231 232 236 236 234 239 248 253 257 259 261 262 260 261 261 261 262
222 245 273 299 317 323 327 329 331 331 332 330 329 330 330 330 330 328 323 305 280 267 234 223 216 209 207 205 211 222 226 230 243 254 257 260 267 267 268 268 267 265 266 267
227 234 262 295 320 331 336 338 340 339 341 342 339 339 340 343 346 346 346 336 309 249 218 200 195 196 194 192 203 218 220 232 245 254 265 274 279 277 274 270 270 273 276 279
207 221 238 321 333 343 347 349 350 352 355 357 357 356 356 358 1 4 1 355 358 212 188 180 183 195 192 196 215 216 212 217 224 261 311 317 307 302 292 288 290 289 289 288
181 173 263 353 0 359 0 1 2 7 10 11 12 13 12 15 20 23 26 33 48 86 124 140 149 161 170 177 173 160 162 157 147 91 25 18 13 13 10 343 336 326 319 316
165 163 25 14 12 10 12 14 15 18 20 22 24 25 28 33 34 41 46 53 61 78 102 117 120 121 124 126 125 126 128 122 98 65 49 42 39 37 37 36 32 25 22 22
169 181 122 34 35 27 27 27 28 29 31 33 33 35 39 45 48 52 57 61 66 77 90 102 107 105 107 109 110 106 103 101 91 78 70 66 63 56 54 58 61 63 62 61
166 147 100 74 64 51 44 40 40 41 41 43 44 46 50 55 56 57 61 66 71 77 84 92 95 95 98 100 99 98 98 96 91 85 79 75 71 68 68 69 72 74 73 71
150 127 101 85 79 69 60 55 54 53 50 50 54 55 58 61 62 63 65 69 74 77 82 86 88 88 88 89 92 94 95 94 90 87 85 80 77 78 79 78 79 78 76 74
159 131 112 98 92 84 77 70 66 65 62 60 61 62 63 65 66 68 70 72 75 77 81 85 86 84 84 86 88 89 91 92 90 88 86 85 84 83 82 81 80 79 78 75
164 145 128 112 100 97 91 82 76 73 71 68 66 67 68 69 70 71 72 73 74 75 79 83 84 83 84 86 86 86 88 91 91 90 89 87 84 82 82 82 81 81 78 73
164 154 138 126 116 109 98 89 84 80 77 74 72 73 74 74 74 74 74 74 75 76 78 81 83 84 84 84 85 87 89 90 88 87 86 85 83 82 82 81 79 77 73 68
162 155 144 133 128 119 108 100 92 86 83 81 80 79 78 77 76 76 76 76 77 78 79 82 84 85 85 86 86 87 87 87 86 85 84 82 82 81 80 78 76 73 69 64
159 152 147 137 131 125 117 108 100 95 92 90 88 85 82 80 79 78 78 78 78 79 80 81 83 84 85 85 85 86 86 85 84 84 83 82 80 78 75 73 70 68 64 59
162 156 152 147 139 131 124 116 108 104 101 97 93 89 86 84 82 81 80 80 80 80 81 82 82 82 83 83 83 84 83 82 81 80 80 78 76 74 72 69 66 63 59 55
169 165 161 156 150 142 132 124 118 111 106 102 98 94 91 89 86 84 83 82 82 82 82 82 81 81 81 80 80 81 80 79 77 77 76 75 73 71 68 65 61 58 55 50
172 170 167 163 158 152 145 137 128 120 114 109 104 99 96 92 89 87 86 85 84 84 83 82 82 81 80 80 78 77 76 75 73 73 73 73 71 68 64 60 56 52 48 44
177 174 170 168 165 160 155 148 140 131 123 117 111 106 101 97 94 91 89 87 86 85 84 83 82 81 81 79 77 75 74 72 70 68 68 68 66 62 58 54 50 46 42 37
181 179 177 174 172 168 163 157 150 142 135 128 121 114 109 104 99 95 92 89 87 85 84 83 82 80 79 77 75 72 70 68 67 64 61 60 57 54 51 46 42 38 34 30
184 184 183 180 177 173 169 163 157 151 145 139 132 125 119 112 106 101 96 92 89 86 84 83 81 78 76 73 71 69 66 63 61 58 55 52 48 44 40 36 32 29 25 22
Height
5761 5761 5761 5762 5762 5761 5759 5758 5757 5755 5753 5752 5749 5748 5746 5744 5742 5740 5738 5737 5735 5734 5733 5732 5732 5731 5731 5731 5732 5732 5733 5734 5734 5736 5737 5738 5740 5741 5742 5743 5743 5745 5746 5747
5758 5758 5758 5759 5758 5757 5756 5755 5753 5751 5749 5747 5745 5743 5741 5739 5737 5735 5733 5731 5729 5728 5727 5726 5726 5725 5725 5725 5726 5727 5727 5728 5729 5730 5731 5733 5734 5735 5736 5736 5737 5738 5739 5740
5755 5755 5755 5756 5755 5754 5752 5751 5749 5747 5746 5743 5741 5738 5736 5734 5731 5729 5727 5725 5723 5722 5721 5720 5719 5719 5719 5720 5720 5721 5722 5723 5724 5725 5726 5727 5728 5729 5729 5730 5731 5732 5733 5733
5752 5753 5753 5755 5751 5750 5749 5747 5746 5743 5741 5738 5736 5733 5730 5728 5726 5723 5721 5719 5717 5716 5715 5714 5713 5713 5714 5714 5715 5716 5717 5718 5719 5720 5721 5721 5722 5723 5724 5725 5726 5727 5727 5728
5749 5749 5750 5750 5749 5747 5746 5744 5742 5740 5737 5734 5731 5728 5725 5723 5720 5718 5716 5714 5712 5710 5709 5709 5708 5709 5709 5710 5711 5711 5712 5713 5714 5715 5716 5717 5718 5719 5719 5720 5721 5721 5721 5722
5746 5746 5746 5748 5746 5744 5744 5741 5739 5735 5732 5729 5726 5724 5722 5718 5715 5713 5710 5708 5706 5705 5705 5705 5705 5705 5706 5706 5707 5707 5708 5709 5710 5711 5712 5713 5714 5714 5715 5715 5716 5716 5716 5717
5743 5743 5744 5744 5742 5741 5741 5739 5735 5731 5728 5725 5722 5720 5718 5714 5711 5708 5706 5704 5703 5702 5701 5701 5702 5702 5703 5703 5704 5705 5705 5706 5706 5707 5708 5709 5710 5710 5710 5710 5711 5711 5711 5711
5740 5741 5743 5741 5739 5739 5738 5734 5731 5728 5724 5721 5719 5716 5713 5710 5707 5704 5702 5700 5700 5699 5699 5699 5700 5700 5701 5701 5702 5702 5703 5703 5704 5705 5705 5706 5706 5706 5706 5707 5707 5707 5707 5707
5738 5740 5739 5738 5737 5736 5734 5731 5728 5725 5722 5719 5716 5713 5710 5707 5704 5702 5699 5698 5697 5697 5697 5698 5698 5699 5700 5700 5700 5701 5701 5702 5702 5703 5703 5704 5704 5704 5703 5703 5703 5703 5703 5703
5735 5736 5736 5736 5735 5733 5731 5728 5725 5722 5719 5716 5713 5710 5707 5705 5702 5700 5698 5697 5696 5696 5696 5696 5697 5698 5698 5699 5700 5700 5700 5701 5701 5702 5702 5702 5702 5701 5701 5701 5700 5700 5700 5700
5733 5734 5734 5733 5732 5730 5729 5726 5723 5720 5717 5715 5712 5709 5706 5703 5701 5699 5697 5696 5695 5695 5695 5695 5696 5697 5698 5698 5699 5699 5700 5700 5701 5701 5701 5701 5700 5700 5699 5699 5699 5698 5698 5698
5731 5732 5732 5731 5730 5729 5727 5725 5722 5720 5717 5714 5711 5708 5705 5703 5701 5699 5697 5696 5695 5694 5694 5695 5696 5696 5697 5698 5698 5699 5699 5700 5700 5700 5700 5700 5699 5699 5699 5698 5698 5697 5697 5697
5729 5729 5730 5729 5729 5728 5726 5724 5722 5719 5717 5714 5711 5709 5706 5704 5702 5700 5698 5696 5695 5694 5694 5695 5696 5696 5697 5697 5698 5699 5699 5700 5700 5700 5700 5700 5699 5699 5699 5698 5698 5697 5697 5696
5728 5728 5728 5728 5727 5727 5725 5724 5722 5720 5717 5715 5713 5710 5708 5705 5703 5701 5700 5698 5696 5695 5695 5695 5696 5697 5697 5698 5699 5699 5699 5700 5700 5700 5700 5700 5700 5699 5699 5699 5698 5698 5697 5697
5727 5728 5728 5727 5727 5726 5726 5724 5723 5721 5719 5717 5714 5712 5710 5708 5706 5704 5702 5700 5699 5697 5697 5697 5698 5698 5699 5699 5699 5700 5700 5700 5701 5701 5701 5701 5701 5700 5700 5700 5699 5699 5699 5698
5726 5727 5727 5727 5727 5727 5726 5725 5724 5723 5721 5719 5717 5715 5713 5711 5709 5707 5705 5703 5702 5701 5700 5700 5700 5700 5700 5700 5701 5701 5701 5702 5702 5702 5703 5702 5702 5702 5702 5701 5701 5700 5700 5700
5726 5727 5727 5728 5728 5727 5727 5727 5726 5725 5724 5722 5720 5718 5716 5714 5713 5711 5709 5707 5706 5705 5704 5704 5704 5703 5703 5703 5703 5703 5704 5704 5705 5705 5705 5704 5704 5704 5704 5704 5703 5703 5702 5702
5726 5727 5728 5729 5729 5729 5729 5729 5728 5727 5726 5725 5724 5722 5720 5719 5717 5715 5714 5712 5710 5709 5708 5708 5707 5707 5707 5707 5707 5707 5707 5707 5707 5707 5707 5707 5707 5707 5707 5706 5706 5705 5705 5704
5726 5728 5729 5730 5730 5731 5731 5731 5731 5730 5729 5728 5727 5726 5725 5723 5721 5720 5718 5717 5715 5714 5713 5712 5711 5711 5711 5711 5710 5711 5711 5711 5711 5711 5711 5711 5710 5710 5710 5710 5709 5708 5708 5707
5726 5728 5729 5730 5731 5732 5733 5733 5733 5733 5732 5731 5731 5730 5729 5727 5726 5725 5723 5722 5720 5719 5718 5717 5717 5716 5716 5715 5715 5715 5715 5715 5715 5715 5715 5715 5714 5714 5714 5713 5712 5711 5711 5710
5726 5728 5730 5731 5732 5734 5734 5735 5735 5735 5735 5735 5734 5733 5733 5732 5730 5729 5728 5727 5726 5725 5724 5723 5722 5721 5721 5721 5720 5720 5720 5720 5720 5719 5719 5718 5718 5718 5717 5716 5716 5715 5714 5713
5726 5728 5730 5732 5734 5735 5736 5737 5737 5738 5738 5738 5737 5737 5736 5736 5735 5734 5733 5732 5731 5730 5729 5728 5727 5727 5726 5726 5725 5725 5725 5724 5724 5723 5723 5722 5721 5721 5720 5719 5718 5717 5716 5715
5726 5728 5731 5733 5735 5737 5738 5739 5740 5740 5740 5741 5741 5740 5740 5739 5739 5738 5737 5737 5736 5735 5734 5733 5732 5732 5731 5730 5730 5730 5729 5729 5728 5727 5726 5725 5725 5724 5723 5722 5721 5720 5719 5718
5725 5728 5731 5733 5736 5738 5739 5741 5742 5742 5743 5743 5743 5744 5743 5743 5742 5742 5741 5741 5740 5739 5738 5738 5737 5736 5735 5735 5734 5734 5733 5733 5732 5731 5730 5729 5728 5727 5726 5725 5724 5723 5721 5720
5724 5727 5730 5733 5736 5738 5740 5742 5743 5744 5745 5746 5746 5746 5746 5746 5746 5746 5745 5744 5744 5743 5742 5742 5741 5740 5740 5739 5738 5738 5737 5736 5735 5734 5733 5732 5731 5730 5729 5728 5726 5725 5723 5722
5721 5725 5729 5732 5735 5738 5740 5742 5744 5745 5747 5748 5748 5749 5749 5749 5749 5749 5748 5748 5748 5747 5746 5746 5745 5744 5743 5743 5742 5741 5740 5739 5738 5737 5736 5735 5733 5732 5731 5730 5728 5727 5725 5723
5718 5723 5727 5730 5734 5737 5740 5742 5744 5746 5748 5749 5750 5751 5751 5751 5752 5752 5751 5751 5751 5750 5750 5749 5748 5748 5747 5746 5745 5744 5743 5742 5741 5740 5739 5737 5736 5734 5733 5732 5730 5728 5726 5724